Flag for Germany Weather past 2 weeks in Munich, Bavaria, Germany

Now
45 °F

Light rain. Mostly cloudy.


Feels Like: 38 °F
Forecast: 44 / 48 °F
Wind: 13 mph from West

Location: Munich / Franz Josef Strauss Airport

Current Time: Mar 29, 2015 at 4:06:08 AM

Latest Report: Mar 29, 2015 at 3:20 AM


Visibility: N/A

Pressure: 29.98 "Hg

Humidity: 93%

Dew point: 43 °F

Location of MunichLocation

Historic Weather in Munich — Graph

°F

Munich temperature yesterday

Maximum temperature yesterday: 54 °F (at 4:20 PM)
Minimum temperature yesterday: 36 °F (at 3:20 AM)
Average temperature yesterday: 45 °F

Past Weeks' High & Low Weather Summary

 TemperatureHumidityPressure
High63 °F (Mar 17, 1:20 PM)100% (Mar 14, 3:20 AM)30.27 "Hg (Mar 14, 3:20 AM)
Low23 °F (Mar 20, 5:20 AM)30% (Mar 17, 3:20 PM)29.56 "Hg (Mar 25, 1:50 PM)
Average42 °F73%30.05 "Hg
* Reported Mar 14 1:20 AM — Mar 29 1:50 AM, Munich, Weather by CustomWeather, © 2015

Note: Actual official high and low records may vary slightly from our data, if they occured in-between our weather recording intervals... More about our weather records

Advertising

Munich weather history for previous 24 hours

 ConditionsComfort  
Time TempWeatherWind HumidityBarometerVisibility
1:50 AM
Sun, Mar 29
45 °FLight rain. Overcast.14 mph93%29.98 "HgN/A
1:20 AM45 °FLight rain. Overcast.14 mph87%29.98 "HgN/A
12:50 AM45 °FLight rain. Overcast.14 mph87%30.01 "HgN/A
12:20 AM45 °FLight rain. Overcast.12 mph87%30.01 "HgN/A
11:50 PM
Sat, Mar 28
43 °FLight rain. Overcast.12 mph93%30.01 "HgN/A
11:20 PM45 °FLight rain. Mostly cloudy.16 mph87%30.04 "HgN/A
10:50 PM45 °FLight rain. Passing clouds.17 mph87%30.04 "HgN/A
10:20 PM45 °FLight rain. Passing clouds.20 mph81%30.04 "HgN/A
9:50 PM48 °FPassing clouds.23 mph66%30.04 "HgN/A
9:20 PM48 °FMostly cloudy.12 mph54%30.01 "HgN/A
8:50 PM45 °FClear.6 mph61%30.01 "Hg10 mi
8:20 PM46 °FPassing clouds.3 mph57%30.04 "HgN/A
7:50 PM45 °FClear.1 mph61%30.04 "Hg10 mi
7:20 PM46 °FClear.1 mph53%30.04 "Hg10 mi
6:50 PM50 °FClear.3 mph47%30.04 "Hg10 mi
6:20 PM50 °FSunny.3 mph47%30.04 "Hg10 mi
5:50 PM52 °FSunny.7 mph41%30.04 "Hg10 mi
5:20 PM52 °FPassing clouds.8 mph41%30.04 "HgN/A
4:50 PM52 °FPassing clouds.8 mph41%30.04 "HgN/A
4:20 PM54 °FPassing clouds.7 mph38%30.04 "HgN/A
3:50 PM52 °FPassing clouds.8 mph41%30.07 "HgN/A
3:20 PM52 °FPassing clouds.12 mph41%30.07 "HgN/A
2:50 PM52 °FPassing clouds.9 mph41%30.07 "HgN/A
2:20 PM52 °FPassing clouds.10 mph41%30.09 "HgN/A
1:50 PM50 °FPassing clouds.12 mph47%30.09 "HgN/A
1:20 PM50 °FScattered clouds.9 mph43%30.12 "HgN/A
12:50 PM50 °FScattered clouds.13 mph43%30.12 "HgN/A
12:20 PM50 °FScattered clouds.13 mph43%30.15 "HgN/A
11:50 AM50 °FPartly sunny.10 mph47%30.15 "HgN/A
11:20 AM46 °FPartly sunny.12 mph53%30.18 "HgN/A
10:50 AM46 °FPartly sunny.10 mph50%30.18 "HgN/A
10:20 AM45 °FPartly sunny.9 mph57%30.18 "HgN/A
9:50 AM45 °FPartly sunny.9 mph57%30.21 "HgN/A
9:20 AM43 °FPassing clouds.7 mph66%30.21 "HgN/A
8:50 AM41 °FSunny.8 mph70%30.21 "Hg10 mi
8:20 AM41 °FSunny.7 mph70%30.21 "Hg10 mi
7:50 AM39 °FSunny.8 mph75%30.21 "Hg10 mi
7:20 AM39 °FPartly sunny.7 mph75%30.24 "HgN/A
6:50 AM37 °FBroken clouds.8 mph81%30.24 "HgN/A
6:20 AM37 °FBroken clouds.7 mph81%30.21 "HgN/A
5:50 AM37 °FPassing clouds.8 mph81%30.21 "HgN/A
5:20 AM37 °FPassing clouds.7 mph81%30.21 "HgN/A
4:20 AM37 °FClear.8 mph81%30.21 "Hg10 mi
Weather by CustomWeather, © 2015

See weather overviewHow to use our weather pages